Weather History for Montevideo, MN

Change the Weather History Date:

Wednesday, April 9, 2014

  Actual Average Record
Temperature  
Mean Temperature 58 °F -  
Max Temperature 80 °F 53 °F 82 °F (1977)
Min Temperature 37 °F 30 °F 8 °F (1997)
Degree Days  
Heating Degree Days 6    
Growing Degree Days 8 (Base 50)    
Moisture  
Dew Point 37 °F    
Average Humidity 50    
Maximum Humidity 75    
Minimum Humidity 24    
Precipitation  
Precipitation 0.00 in - - ()
Sea Level Pressure  
Sea Level Pressure 29.68 in    
Wind  
Wind Speed 11 mph (WSW)    
Max Wind Speed 24 mph    
Max Gust Speed 34 mph    
Visibility 10 miles    
Events      
Averages and records for this station are not official NWS values.
T = Trace of Precipitation, MM = Missing Value Source: NWS Daily Summary

Daily Weather History Graph

Daily Weather History Graph

Search for Another Location

Airport:

Trip Planner

Search our weather history database for the weather conditions in past years. The results will help you decide how hot, cold, wet, or windy it might be!

Date:

Astronomy

Apr. 09, 2014 Rise Set
Actual Time 6:48 AM CDT 8:00 PM CDT
Civil Twilight 6:18 AM CDT 8:31 PM CDT
Nautical Twilight 5:42 AM CDT 9:07 PM CDT
Astronomical Twilight 5:04 AM CDT 9:45 PM CDT
Moon 2:37 PM CDT (4/9) 3:52 AM CDT (4/9)
Length of Visible Light 14h 12m
Length of Day
13h 11m
Waxing Gibbous, 72% of the Moon is Illuminated
Apr 9
Waxing Gibbous
Apr 15
Full
Apr 22
Last Quarter
Apr 29
New
May 6
First Quarter

Hourly Weather History & Observations

Time (CDT) Temp. Windchill Dew Point Humidity Pressure Visibility Wind Dir Wind Speed Gust Speed Precip Events Conditions
12:14 AM 37.4 °F 32.1 °F 30.2 °F 75% 29.94 in 10.0 mi SSW 6.9 mph - N/A   Clear
12:34 AM 37.4 °F 32.1 °F 30.2 °F 75% 29.93 in 10.0 mi SSW 6.9 mph - N/A   Clear
12:54 AM 37.4 °F 31.4 °F 30.2 °F 75% 29.93 in 10.0 mi SSW 8.1 mph - N/A   Clear
1:14 AM 37.4 °F 30.8 °F 30.2 °F 75% 29.92 in 10.0 mi SSW 9.2 mph - N/A   Clear
1:34 AM 37.4 °F 31.4 °F 30.2 °F 75% 29.92 in 10.0 mi SSW 8.1 mph - N/A   Clear
1:54 AM 37.4 °F 30.3 °F 30.2 °F 75% 29.92 in 10.0 mi SW 10.4 mph - N/A   Clear
2:14 AM 37.4 °F 29.8 °F 30.2 °F 75% 29.92 in 10.0 mi SW 11.5 mph - N/A   Clear
2:34 AM 37.4 °F 30.3 °F 30.2 °F 75% 29.90 in 10.0 mi SSW 10.4 mph - N/A   Scattered Clouds
2:54 AM 39.2 °F 33.0 °F 30.2 °F 70% 29.89 in 10.0 mi SSW 9.2 mph - N/A   Mostly Cloudy
3:14 AM 39.2 °F 32.0 °F 30.2 °F 70% 29.87 in 10.0 mi SSW 11.5 mph - N/A   Overcast
3:34 AM 39.2 °F 33.0 °F 30.2 °F 70% 29.86 in 10.0 mi SSW 9.2 mph - N/A   Overcast
3:54 AM 39.2 °F 33.0 °F 30.2 °F 70% 29.86 in 10.0 mi SSW 9.2 mph - N/A   Overcast
4:14 AM 39.2 °F 33.0 °F 30.2 °F 70% 29.86 in 10.0 mi SW 9.2 mph - N/A   Overcast
4:34 AM 39.2 °F 32.5 °F 30.2 °F 70% 29.85 in 10.0 mi SSW 10.4 mph - N/A   Overcast
4:54 AM 39.2 °F 33.0 °F 30.2 °F 70% 29.84 in 10.0 mi SW 9.2 mph - N/A   Mostly Cloudy
5:14 AM 37.4 °F 31.4 °F 30.2 °F 75% 29.82 in 10.0 mi SSW 8.1 mph - N/A   Mostly Cloudy
5:34 AM 37.4 °F 31.4 °F 30.2 °F 75% 29.81 in 10.0 mi SSW 8.1 mph - N/A   Scattered Clouds
5:54 AM 39.2 °F 32.5 °F 30.2 °F 70% 29.80 in 10.0 mi SSW 10.4 mph - N/A   Scattered Clouds
6:14 AM 39.2 °F 33.0 °F 28.4 °F 65% 29.78 in 10.0 mi SSW 9.2 mph - N/A   Scattered Clouds
6:34 AM 39.2 °F 32.5 °F 28.4 °F 65% 29.76 in 10.0 mi SSW 10.4 mph - N/A   Clear
6:54 AM 39.2 °F 32.0 °F 28.4 °F 65% 29.76 in 10.0 mi SW 11.5 mph - N/A   Clear
7:14 AM 39.2 °F 31.6 °F 28.4 °F 65% 29.76 in 10.0 mi SW 12.7 mph - N/A   Clear
7:34 AM 41.0 °F 34.3 °F 28.4 °F 61% 29.75 in 10.0 mi SW 11.5 mph - N/A   Clear
7:54 AM 42.8 °F 36.6 °F 30.2 °F 61% 29.75 in 10.0 mi SW 11.5 mph - N/A   Clear
8:14 AM 46.4 °F 41.1 °F 30.2 °F 53% 29.74 in 10.0 mi SW 11.5 mph - N/A   Clear
8:34 AM 46.4 °F 41.9 °F 30.2 °F 53% 29.74 in 10.0 mi WSW 9.2 mph - N/A   Clear
8:54 AM 48.2 °F - 32.0 °F 54% 29.73 in 10.0 mi WSW 15.0 mph - N/A   Clear
9:14 AM 48.2 °F - 32.0 °F 54% 29.72 in 10.0 mi WSW 9.2 mph - N/A   Clear
9:34 AM 50.0 °F - 33.8 °F 54% 29.71 in 10.0 mi WSW 13.8 mph - N/A   Clear
9:54 AM 51.8 °F - 35.6 °F 54% 29.69 in 10.0 mi WSW 11.5 mph 23.0 mph N/A   Clear
10:14 AM 53.6 °F - 35.6 °F 51% 29.69 in 10.0 mi WSW 17.3 mph - N/A   Clear
10:54 AM 57.2 °F - 37.4 °F 48% 29.68 in 10.0 mi West 13.8 mph - N/A   Clear
11:14 AM 59.0 °F - 37.4 °F 45% 29.68 in 10.0 mi WSW 12.7 mph 17.3 mph N/A   Clear
11:34 AM 60.8 °F - 39.2 °F 45% 29.67 in 10.0 mi WSW 12.7 mph - N/A   Clear
11:54 AM 62.6 °F - 41.0 °F 45% 29.66 in 10.0 mi West 6.9 mph 20.7 mph N/A   Clear
12:14 PM 64.4 °F - 41.0 °F 42% 29.65 in 10.0 mi West 13.8 mph 21.9 mph N/A   Clear
12:34 PM 66.2 °F - 42.8 °F 43% 29.64 in 10.0 mi West 11.5 mph - N/A   Clear
12:54 PM 66.2 °F - 42.8 °F 43% 29.63 in 10.0 mi WSW 10.4 mph 17.3 mph N/A   Clear
1:14 PM 69.8 °F - 44.6 °F 40% 29.62 in 10.0 mi WSW 12.7 mph 17.3 mph N/A   Clear
1:34 PM 71.6 °F - 44.6 °F 38% 29.61 in 10.0 mi West 13.8 mph 20.7 mph N/A   Clear
1:54 PM 73.4 °F - 42.8 °F 33% 29.59 in 10.0 mi WSW 13.8 mph 19.6 mph N/A   Clear
2:14 PM 73.4 °F - 42.8 °F 33% 29.59 in 10.0 mi West 12.7 mph 24.2 mph N/A   Clear
2:34 PM 75.2 °F - 42.8 °F 31% 29.59 in 10.0 mi West 15.0 mph 24.2 mph N/A   Clear
2:54 PM 77.0 °F - 42.8 °F 29% 29.58 in 10.0 mi West 12.7 mph 19.6 mph N/A   Clear
3:14 PM 75.2 °F - 42.8 °F 31% 29.57 in 10.0 mi West 17.3 mph 24.2 mph N/A   Clear
3:34 PM 77.0 °F - 42.8 °F 29% 29.56 in 10.0 mi West 11.5 mph 24.2 mph N/A   Clear
3:54 PM 78.8 °F - 42.8 °F 28% 29.55 in 10.0 mi West 13.8 mph 19.6 mph N/A   Clear
4:14 PM 78.8 °F - 42.8 °F 28% 29.55 in 10.0 mi WNW 10.4 mph 20.7 mph N/A   Clear
4:34 PM 80.6 °F - 42.8 °F 26% 29.53 in 10.0 mi WNW 16.1 mph 23.0 mph N/A   Clear
4:54 PM 78.8 °F - 42.8 °F 28% 29.53 in 10.0 mi West 12.7 mph 20.7 mph N/A   Clear
5:14 PM 80.6 °F - 42.8 °F 26% 29.52 in 10.0 mi West 12.7 mph 20.7 mph N/A   Clear
5:34 PM 80.6 °F - 42.8 °F 26% 29.52 in 10.0 mi West 13.8 mph 18.4 mph N/A   Clear
5:54 PM 80.6 °F - 41.0 °F 24% 29.51 in 10.0 mi West 8.1 mph 17.3 mph N/A   Clear
6:13 PM 80.6 °F - 42.8 °F 26% 29.51 in 10.0 mi West 9.2 mph 16.1 mph N/A   Clear
6:34 PM 78.8 °F - 39.2 °F 24% 29.51 in 10.0 mi WNW 9.2 mph 18.4 mph N/A   Clear
6:54 PM 77.0 °F - 39.2 °F 26% 29.50 in 10.0 mi WNW 6.9 mph - N/A   Clear
7:14 PM 73.4 °F - 39.2 °F 29% 29.50 in 10.0 mi WNW 4.6 mph - N/A   Clear
7:34 PM 71.6 °F - 39.2 °F 31% 29.49 in 10.0 mi West 4.6 mph - N/A   Clear
7:54 PM 69.8 °F - 39.2 °F 33% 29.49 in 10.0 mi West 8.1 mph - N/A   Clear
8:14 PM 69.8 °F - 41.0 °F 35% 29.49 in 10.0 mi West 8.1 mph - N/A   Scattered Clouds
8:34 PM 69.8 °F - 41.0 °F 35% 29.51 in 10.0 mi NW 9.2 mph - N/A   Scattered Clouds
8:54 PM 71.6 °F - 37.4 °F 29% 29.51 in 10.0 mi NNW 17.3 mph 32.2 mph N/A   Light Drizzle
9:14 PM 71.6 °F - 39.2 °F 31% 29.52 in 10.0 mi NNW 15.0 mph 25.3 mph N/A   Scattered Clouds
9:34 PM 69.8 °F - 39.2 °F 33% 29.54 in 10.0 mi North 18.4 mph 28.8 mph N/A   Scattered Clouds
9:54 PM 66.2 °F - 39.2 °F 37% 29.56 in 10.0 mi North 15.0 mph - N/A   Clear
10:14 PM 62.6 °F - 42.8 °F 48% 29.58 in 10.0 mi North 16.1 mph 25.3 mph N/A   Clear
10:34 PM 60.8 °F - 44.6 °F 55% 29.60 in 10.0 mi NNE 18.4 mph 25.3 mph N/A   Clear
10:54 PM 57.2 °F - 42.8 °F 59% 29.62 in 10.0 mi NNE 21.9 mph 29.9 mph N/A   Clear
11:14 PM 55.4 °F - 39.2 °F 54% 29.62 in 10.0 mi North 23.0 mph 34.5 mph N/A   Clear
11:34 PM 53.6 °F - 39.2 °F 58% 29.65 in 10.0 mi North 24.2 mph 31.1 mph N/A   Clear
11:54 PM 53.6 °F - 39.2 °F 58% 29.67 in 10.0 mi North 13.8 mph 28.8 mph N/A   Scattered Clouds